Regional Weather Roundup
Issued by NWS

Home | Current Version | Previous Version | Graphics & Text | Print | Product List | Glossary On
Versions: 1 2 3 4 5 6 7 8 9 10 11 12 13 14 15 16 17 18 19 20 21 22 23 24 25 26 27 28 29 30 31 32 33 34 35 36 37 38 39 40 41 42 43 44 45 46 47 48 49 50
000
ASUS43 KLMK 251110
RWRKY
KENTUCKY REGIONAL WEATHER ROUNDUP
NATIONAL WEATHER SERVICE LOUISVILLE KY
600 AM EST SAT FEB 25 2017

NOTE "FAIR" INDICATES FEW OR NO CLOUDS BELOW 12,000 FEET
WITH NO SIGNIFICANT WEATHER AND/OR OBSTRUCTIONS TO VISIBILITY.

KYZ001>023-026-027-061>063-070>075-251200-
WESTERN AND SOUTH CENTRAL KENTUCKY

CITY           SKY/WX    TMP DP  RH WIND       PRES   REMARKS
PADUCAH        CLEAR     33  19  56 NW12      29.94R WCI  24
HENDERSON      CLOUDY    36  21  55 W16G29    29.89R WCI  26
OWENSBORO      CLOUDY    35  23  61 NW21G29   29.89R WCI  24
HOPKINSVILLE   PTCLDY    41  27  57 W14       29.87R
BOWLING GREEN  CLOUDY    45  30  55 NW8       29.84R
GLASGOW        CLOUDY    43  29  59 W14       29.82R
$$

KYZ024-025-028>034-038-045-046-053-251200-
NORTH CENTRAL KENTUCKY

CITY           SKY/WX    TMP DP  RH WIND       PRES   REMARKS
LOUISVILLE/SDF MOCLDY    42  28  57 W22G30    29.78R
LOUISVILLE/LOU CLOUDY    44  31  60 W15G23    29.77R
FORT KNOX      CLOUDY    41  31  67 W13G21    29.77R
$$

KYZ035>037-039>044-047>052-055>060-089>105-251200-
NORTHEAST KENTUCKY

CITY           SKY/WX    TMP DP  RH WIND       PRES   REMARKS
LEXINGTON      MOCLDY    43  29  57 W12       29.73R
COVINGTON      CLOUDY    42  33  70 W9        29.68R
FRANKFORT      CLEAR     43  28  55 W7        29.73R
$$

KYZ054-064>069-076>088-106>120-251200-
SOUTHEAST KENTUCKY

CITY           SKY/WX    TMP DP  RH WIND       PRES   REMARKS
JACKSON        CLOUDY    45  44  97 VRB3      29.70R
LONDON         CLOUDY    48  44  86 W8        29.74R
SOMERSET       CLOUDY    46  39  76 W8        29.77R
MIDDLESBORO    LGT RAIN  50  45  82 CALM      29.75R
MONTICELLO     PTSUNNY   45  42  89 W6        29.78R
$$




USA.gov is the U.S. government's official web portal to all federal, state and local government web resources and services.